Volver al catálogo

FENGYUN 1C DEB

ActivoSSO
NORAD 29801·DEBRIS·🇨🇳 China

Lanzado May 10, 1999 desde Taiyuan Satellite Launch Center

Loading…

Próximos Pases (próximas 24 horas)

TLE

ActualizadoSource: Space-Track

Época: Sep 14, 2026, 05:56 UTC

1 29801U 99025CT  26257.24748604  .00000190  00000-0  76601-4 0  9996
2 29801  98.7766 168.6459 0103480 173.6774 338.3266 14.36137611 28942

Sigue FENGYUN 1C DEB en tiempo real con AllMySat

Download on the App Store